Home > Weather > Málaga > Past weeks

Flag for Spain Past Weather in Málaga, Spain — Yesterday and Last 2 Weeks

Now
73 °F

Passing clouds.


Feels Like: 74 °F
Forecast: 65 / 85 °F
Wind: 1 mph from North

Location: Malaga / Aeropuerto

Current Time: Jun 27, 2016 at 12:46:43 AM

Latest Report: Jun 27, 2016 at 12:00 AM


Visibility: N/A

Pressure: 30.07 "Hg

Humidity: 78%

Dew Point: 66 °F

Location of MálagaLocation

Past Weather in Málaga — Graph

°F

Málaga Temperature Yesterday

Maximum temperature yesterday: 79 °F (at 4:30 PM)
Minimum temperature yesterday: 64 °F (at 6:30 AM)
Average temperature yesterday: 73 °F

High & Low Weather Summary for the Past Weeks

 TemperatureHumidityPressure
High102 °F (Jun 13, 5:30 PM)94% (Jun 20, 2:30 AM)30.30 "Hg (Jun 20, 2:30 AM)
Low61 °F (Jun 20, 5:30 AM)17% (Jun 14, 3:00 PM)29.71 "Hg (Jun 15, 6:30 PM)
Average74 °F58%30.01 "Hg
* Reported Jun 11 11:00 PM — Jun 26 11:30 PM, Málaga, Weather by CustomWeather, © 2016

Note: Actual official high and low records may vary slightly from our data, if they occured in-between our weather recording intervals... More about our weather records

Advertising

Málaga Weather History for the Previous 24 Hours

Scroll right to see more
 ConditionsComfort  
Time TempWeatherWind HumidityBarometerVisibility
11:30 PM
Sun, Jun 26
72 °FPassing clouds.1 mph83%30.07 "HgN/A
11:00 PM72 °FPassing clouds.1 mph83%30.07 "HgN/A
10:30 PM73 °FPassing clouds.2 mph83%30.04 "HgN/A
10:00 PM73 °FPassing clouds.3 mph83%30.04 "HgN/A
9:30 PM73 °FPassing clouds.3 mph83%30.01 "HgN/A
9:00 PM73 °FPassing clouds.6 mph83%30.01 "HgN/A
8:30 PM75 °FPassing clouds.6 mph74%30.01 "HgN/A
8:00 PM75 °FPassing clouds.7 mph74%29.98 "HgN/A
7:30 PM77 °FPassing clouds.7 mph74%29.98 "HgN/A
7:00 PM77 °FPassing clouds.8 mph74%29.98 "HgN/A
6:30 PM77 °FSunny.10 mph69%29.98 "Hg10 mi
6:00 PM77 °FPassing clouds.9 mph74%30.01 "HgN/A
5:30 PM77 °FPassing clouds.9 mph74%30.01 "HgN/A
5:00 PM75 °FPassing clouds.8 mph78%30.01 "HgN/A
4:30 PM79 °FPassing clouds.9 mph70%30.01 "HgN/A
4:00 PM77 °FPassing clouds.9 mph74%30.01 "HgN/A
3:30 PM77 °FPassing clouds.8 mph79%30.01 "HgN/A
3:00 PM77 °FPassing clouds.9 mph74%30.01 "HgN/A
2:30 PM75 °FPassing clouds.10 mph78%30.01 "HgN/A
2:00 PM77 °FPassing clouds.10 mph74%30.01 "HgN/A
1:30 PM75 °FScattered clouds.9 mph78%30.01 "HgN/A
1:00 PM77 °FPassing clouds.10 mph74%30.01 "HgN/A
12:30 PM75 °FPassing clouds.10 mph74%30.01 "HgN/A
12:00 PM75 °FPassing clouds.12 mph74%30.01 "HgN/A
11:30 AM77 °FPassing clouds.10 mph69%29.98 "HgN/A
11:00 AM75 °FPassing clouds.8 mph69%29.98 "HgN/A
10:30 AM75 °FPassing clouds.5 mph74%29.98 "Hg5 mi
10:00 AM75 °FPassing clouds.5 mph69%29.98 "Hg5 mi
9:30 AM73 °FPassing clouds.5 mph78%29.98 "Hg4 mi
9:00 AM72 °FPassing clouds.No wind83%29.98 "Hg4 mi
8:30 AM70 °FPassing clouds.1 mph83%29.95 "Hg4 mi
8:00 AM68 °FPassing clouds.No wind88%29.95 "Hg4 mi
7:30 AM64 °FClear.5 mph88%29.95 "Hg6 mi
7:00 AM64 °FClear.5 mph94%29.95 "Hg4 mi
6:30 AM64 °FClear.1 mph94%29.92 "Hg5 mi
6:00 AM66 °FClear.No wind88%29.92 "Hg6 mi
5:30 AM68 °FClear.5 mph83%29.92 "Hg6 mi
5:00 AM66 °FClear.8 mph94%29.92 "Hg6 mi
4:30 AM68 °FClear.10 mph88%29.92 "Hg6 mi
4:00 AM68 °FPassing clouds.3 mph88%29.92 "Hg5 mi
3:30 AM70 °FPassing clouds.2 mph88%29.92 "Hg5 mi
3:00 AM70 °FPassing clouds.6 mph94%29.95 "Hg5 mi
2:30 AM70 °FPassing clouds.8 mph94%29.95 "Hg6 mi
2:00 AM70 °FPassing clouds.8 mph94%29.95 "HgN/A
1:30 AM70 °FPassing clouds.8 mph88%29.95 "HgN/A
1:00 AM70 °FClear.No wind83%29.95 "Hg10 mi
12:30 AM70 °FClear.No wind88%29.95 "Hg10 mi
12:00 AM70 °FClear.1 mph83%29.92 "Hg10 mi
Weather by CustomWeather, © 2016

See weather overviewHow to use our weather pages